Date String (YYYY-MM-DD hh:mm:ss) UTC,Instrument flags,Ambient pressure (hPa),Sample flow (lpm),Bypass flow (lpm),Sample temperature (°C),Ambient temperature (°C),ASC tube jacket temperature (°C),LED temperature (°C),Box temperature (°C),Sample RH (%),Span deviation,Mass concentration (μg/m³),Mass concentration (μg/m³),Mass concentration (μg/m³)
DateTimeUTC,F1_M11,P_M11,Q1_M11,Q2_M11,T1_M11,T2_M11,T3_M11,T4_M11,T5_M11,U1_M11,ZSPAN_M11,X0_M11,X2_M11,X1_M11
2022-01-11 02:00:00,,0834.3,5.01,0.00,27.4,26.6,00.0,36.6,29.1,05.9,0000.0,0001.93,0001.07,0000.83
2022-01-11 02:01:00,,0834.3,5.00,0.00,27.4,26.5,00.0,36.6,29.1,05.6,0000.0,0002.06,0001.13,0000.87
2022-01-11 02:02:00,,0834.3,4.99,0.00,27.4,26.5,00.0,36.6,29.0,05.9,0000.0,0002.10,0001.15,0000.90
2022-01-11 02:03:00,,0834.3,5.00,0.00,27.3,26.5,00.0,36.6,29.0,05.8,0000.0,0002.23,0001.20,0000.92
2022-01-11 02:04:00,,0834.3,5.00,0.00,27.3,26.5,00.0,36.5,29.0,05.9,0000.0,0003.06,0001.25,0000.97
2022-01-11 02:05:00,,0834.3,4.99,0.00,27.3,26.5,00.0,36.5,29.0,05.8,0000.0,0003.40,0001.37,0001.05
2022-01-11 02:06:00,,0834.3,4.99,0.00,27.3,26.5,00.0,36.5,29.0,05.7,0000.0,0003.85,0001.52,0001.15
2022-01-11 02:07:00,,0834.3,4.99,0.00,27.3,26.5,00.0,36.5,29.0,05.4,0000.0,0004.24,0001.66,0001.26
2022-01-11 02:08:00,,0834.3,5.01,0.00,27.3,26.5,00.0,36.5,29.0,05.5,0000.0,0004.36,0001.75,0001.34
2022-01-11 02:09:00,,0834.2,5.01,0.00,27.3,26.5,00.0,36.5,29.0,05.8,0000.0,0004.74,0001.97,0001.49
2022-01-11 02:10:00,,0834.2,4.98,0.00,27.3,26.5,00.0,36.4,29.0,06.3,0000.0,0005.47,0002.35,0001.76
2022-01-11 02:11:00,,0834.2,5.02,0.00,27.3,26.5,00.0,36.4,28.9,06.3,0000.0,0006.67,0002.69,0002.01
2022-01-11 02:12:00,,0834.2,5.00,0.00,27.3,26.4,00.0,36.4,28.9,05.6,0000.0,0007.66,0002.83,0002.14
2022-01-11 02:13:00,,0834.2,4.99,0.00,27.2,26.4,00.0,36.4,28.9,05.3,0000.0,0007.98,0002.92,0002.18
2022-01-11 02:14:00,,0834.3,5.00,0.00,27.2,26.4,00.0,36.4,28.9,05.2,0000.0,0008.08,0002.98,0002.20
2022-01-11 02:15:00,,0834.3,5.02,0.00,27.2,26.4,00.0,36.4,28.9,05.9,0000.0,0007.82,0003.12,0002.29
2022-01-11 02:16:00,,0834.3,4.98,0.00,27.2,26.4,00.0,36.4,28.9,06.0,0000.0,0007.92,0003.25,0002.43
2022-01-11 02:17:00,,0834.3,5.00,0.00,27.2,26.4,00.0,36.4,28.9,06.0,0000.0,0008.09,0003.30,0002.51
2022-01-11 02:18:00,,0834.3,5.00,0.00,27.2,26.4,00.0,36.4,28.9,06.3,0000.0,0008.56,0003.47,0002.68
2022-01-11 02:19:00,,0834.3,4.99,0.00,27.2,26.4,00.0,36.3,28.9,06.1,0000.0,0009.20,0003.61,0002.83
2022-01-11 02:20:00,,0834.3,5.00,0.00,27.2,26.4,00.0,36.3,28.9,06.2,0000.0,0009.38,0003.66,0002.91
2022-01-11 02:21:00,,0834.3,5.01,0.00,27.2,26.4,00.0,36.3,28.9,05.9,0000.0,0009.31,0003.61,0002.83
2022-01-11 02:22:00,,0834.3,4.99,0.00,27.1,26.4,00.0,36.3,28.9,05.7,0000.0,0008.70,0003.48,0002.65
2022-01-11 02:23:00,,0834.3,5.00,0.00,27.1,26.4,00.0,36.3,28.9,05.7,0000.0,0008.14,0003.47,0002.60
2022-01-11 02:24:00,,0834.3,5.01,0.00,27.1,26.3,00.0,36.3,28.8,05.9,0000.0,0008.10,0003.54,0002.68
2022-01-11 02:25:00,,0834.3,5.00,0.00,27.1,26.3,00.0,36.3,28.8,05.8,0000.0,0008.29,0003.60,0002.75
2022-01-11 02:26:00,,0834.2,4.98,0.00,27.1,26.3,00.0,36.2,28.8,05.8,0000.0,0008.33,0003.61,0002.75
2022-01-11 02:27:00,,0834.3,5.01,0.00,27.1,26.3,00.0,36.2,28.8,05.8,0000.0,0008.04,0003.48,0002.61
2022-01-11 02:28:00,,0834.3,4.99,0.00,27.1,26.3,00.0,36.2,28.8,05.7,0000.0,0007.81,0003.42,0002.55
2022-01-11 02:29:00,,0834.3,5.00,0.00,27.1,26.3,00.0,36.2,28.8,05.7,0000.0,0007.25,0003.28,0002.39
2022-01-11 02:30:00,,0834.3,5.02,0.00,27.1,26.3,00.0,36.2,28.8,05.6,0000.0,0006.21,0003.15,0002.24
2022-01-11 02:31:00,,0834.3,4.99,0.00,27.1,26.3,00.0,36.2,28.8,05.6,0000.0,0005.69,0003.00,0002.09
2022-01-11 02:32:00,,0834.2,5.00,0.00,27.0,26.3,00.0,36.2,28.8,05.6,0000.0,0005.40,0002.82,0001.96
2022-01-11 02:33:00,,0834.1,5.00,0.00,27.0,26.3,00.0,36.2,28.8,05.6,0000.0,0005.84,0002.82,0001.95
2022-01-11 02:34:00,,0834.2,4.99,0.00,27.0,26.3,00.0,36.2,28.8,05.7,0000.0,0006.68,0002.86,0001.96
2022-01-11 02:35:00,,0834.2,5.01,0.00,27.0,26.3,00.0,36.1,28.8,05.7,0000.0,0006.62,0002.83,0001.92
2022-01-11 02:36:00,,0834.2,5.00,0.00,27.1,26.3,00.0,36.1,28.8,05.6,0000.0,0006.46,0002.79,0001.90
2022-01-11 02:37:00,,0834.3,5.00,0.00,27.1,26.3,00.0,36.1,28.8,05.5,0000.0,0006.24,0002.74,0001.86
2022-01-11 02:38:00,,0834.3,4.99,0.00,27.1,26.3,00.0,36.1,28.8,05.5,0000.0,0006.20,0002.68,0001.81
2022-01-11 02:39:00,,0834.2,5.02,0.00,27.1,26.3,00.0,36.1,28.8,05.5,0000.0,0006.07,0002.61,0001.75
2022-01-11 02:40:00,,0834.1,4.99,0.00,27.1,26.3,00.0,36.1,28.8,05.6,0000.0,0006.12,0002.60,0001.72
2022-01-11 02:41:00,,0834.1,5.01,0.00,27.1,26.3,00.0,36.1,28.8,05.6,0000.0,0007.42,0002.63,0001.73
2022-01-11 02:42:00,,0834.1,5.00,0.00,27.0,26.3,00.0,36.1,28.8,05.7,0000.0,0007.86,0002.67,0001.76
2022-01-11 02:43:00,,0834.1,4.99,0.00,27.0,26.3,00.0,36.1,28.8,05.8,0000.0,0008.04,0002.81,0001.83
2022-01-11 02:44:00,,0834.0,5.01,0.00,27.0,26.3,00.0,36.1,28.7,05.6,0000.0,0008.15,0002.94,0001.87
2022-01-11 02:45:00,,0834.1,5.02,0.00,27.0,26.3,00.0,36.1,28.8,05.7,0000.0,0008.58,0002.98,0001.88
2022-01-11 02:46:00,,0834.1,4.99,0.00,27.0,26.2,00.0,36.1,28.7,05.7,0000.0,0008.47,0003.00,0001.91
2022-01-11 02:47:00,,0834.1,5.01,0.00,27.0,26.2,00.0,36.1,28.7,05.7,0000.0,0008.52,0003.07,0001.94
2022-01-11 02:48:00,,0834.1,4.99,0.00,27.0,26.2,00.0,36.1,28.7,05.7,0000.0,0008.62,0003.13,0002.00
2022-01-11 02:49:00,,0834.0,4.99,0.00,27.0,26.2,00.0,36.1,28.8,05.7,0000.0,0008.84,0003.20,0002.08
2022-01-11 02:50:00,,0834.0,5.01,0.00,27.0,26.2,00.0,36.0,28.8,05.8,0000.0,0009.13,0003.31,0002.19
2022-01-11 02:51:00,,0834.0,5.01,0.00,27.0,26.2,00.0,36.0,28.8,05.9,0000.0,0009.35,0003.39,0002.30
2022-01-11 02:52:00,,0834.0,4.98,0.00,27.0,26.2,00.0,36.0,28.8,06.1,0000.0,0008.81,0003.47,0002.39
2022-01-11 02:53:00,,0834.1,5.00,0.00,27.0,26.2,00.0,36.0,28.8,06.2,0000.0,0008.59,0003.54,0002.47
2022-01-11 02:54:00,,0834.1,5.00,0.00,27.0,26.2,00.0,36.0,28.8,06.5,0000.0,0008.57,0003.58,0002.54
2022-01-11 02:55:00,,0834.1,5.00,0.00,27.0,26.2,00.0,36.0,28.8,06.7,0000.0,0008.91,0003.62,0002.66
2022-01-11 02:56:00,,0834.1,5.01,0.00,27.0,26.2,00.0,36.0,28.7,06.7,0000.0,0008.47,0003.69,0002.84
2022-01-11 02:57:00,,0834.0,5.00,0.00,27.0,26.2,00.0,36.0,28.7,06.5,0000.0,0008.85,0003.78,0003.00
2022-01-11 02:58:00,,0834.0,5.00,0.00,27.0,26.2,00.0,36.0,28.7,06.4,0000.0,0009.57,0003.86,0003.12
2022-01-11 02:59:00,,0834.0,4.99,0.00,27.0,26.1,00.0,36.0,28.7,06.4,0000.0,0009.59,0003.92,0003.19
